Simultaneous Nadir Overpasses (SNOs) Predictions

Prediction of SNOs between GOES-16 and METOP-C Satellite Orbit:

Table of predicted SNOs for the next 14.0 days since TLE Epoch: 2/28/2020
Index Date Time (GOES-16) GOES-16 Lat,Lon METOP-C Lat,Lon Distance(km) Time Diff (sec)
1 03/01/2020 02:44:47 0.02, -75.16 -0.77, -78.57 389.84 80
2 03/02/2020 02:26:48 0.02, -75.17 0.37, -73.59 179.79 80
3 03/03/2020 14:43:01 -0.03, -75.19 0.64, -78.15 338.08 80
4 03/04/2020 14:25:03 -0.03, -75.19 -0.50, -73.17 231.65 80
5 03/06/2020 02:41:23 0.04, -75.19 -0.53, -77.76 292.35 80
6 03/07/2020 02:23:24 0.03, -75.20 0.55, -72.76 277.63 80
7 03/08/2020 14:39:37 -0.04, -75.23 0.46, -77.32 239.54 80
8 03/09/2020 14:21:39 -0.03, -75.24 -0.68, -72.34 330.92 80
9 03/11/2020 02:37:59 0.04, -75.25 -0.34, -76.93 191.82 80
10 03/12/2020 02:20:00 0.03, -75.26 0.80, -71.94 378.96 80
11 03/13/2020 14:36:14 -0.04, -75.30 0.21, -76.51 137.22 80




NCC Satellite Simultaneous Nadir Overpasses (SNOs) Prediction Service
